Weather History for Peachtree City, GA

Change the Weather History Date:

Tuesday, November 12, 2013

  Actual Average Record
Temperature  
Mean Temperature 50 °F 54 °F  
Max Temperature 66 °F 67 °F 78 °F (2003)
Min Temperature 34 °F 41 °F 26 °F (1996)
Degree Days  
Heating Degree Days 15 11  
Month to date heating degree days 126 121  
Since 1 July heating degree days 238 287  
Cooling Degree Days 0 0  
Month to date cooling degree days 0 2  
Year to date cooling degree days 1551 1650  
Moisture  
Dew Point 33 °F    
Average Humidity 67    
Maximum Humidity 100    
Minimum Humidity 34    
Precipitation  
Precipitation 0.00 in 0.13 in 0.94 in (2004)
Month to date precipitation 0.44 1.41  
Year to date precipitation 43.39  
Snow  
Snow 0.00 in - - ()
Month to date snowfall 0.0  
Since 1 July snowfall 0.0  
Since 1 September snowfall 0.0  
Snow Depth 0.00 in    
Sea Level Pressure  
Sea Level Pressure 30.26 in    
Wind  
Wind Speed 10 mph (NNW)    
Max Wind Speed 26 mph    
Max Gust Speed 35 mph    
Visibility 10 miles    
Events      
T = Trace of Precipitation, MM = Missing Value Source: NWS Daily Summary

Daily Weather History Graph

Daily Weather History Graph

Search for Another Location

Airport:

Trip Planner

Search our weather history database for the weather conditions in past years. The results will help you decide how hot, cold, wet, or windy it might be!

Date:

Astronomy

Nov. 12, 2013 Rise Set
Actual Time 7:06 AM EST 5:37 PM EST
Civil Twilight 6:40 AM EST 6:03 PM EST
Nautical Twilight 6:10 AM EST 6:33 PM EST
Astronomical Twilight 5:41 AM EST 7:02 PM EST
Moon 2:38 PM EST (11/12) 2:10 AM EST (11/12)
Length of Visible Light 11h 23m
Length of Day
10h 30m
Waxing Gibbous, 76% of the Moon is Illuminated
Nov 12
Waxing Gibbous
Nov 17
Full
Nov 25
Last Quarter
Dec 2
New
Dec 9
First Quarter

Hourly Weather History & Observations

Time (EST) Temp. Windchill Dew Point Humidity Pressure Visibility Wind Dir Wind Speed Gust Speed Precip Events Conditions
12:53 AM 41.0 °F - 39.9 °F 96% 30.20 in 10.0 mi Calm Calm - N/A   Overcast
1:53 AM 41.0 °F - 39.0 °F 93% 30.18 in 10.0 mi Calm Calm - N/A   Scattered Clouds
2:53 AM 39.0 °F - 37.9 °F 96% 30.18 in 8.0 mi Calm Calm - N/A   Clear
3:53 AM 37.9 °F - 37.0 °F 97% 30.17 in 9.0 mi Calm Calm - N/A   Clear
4:53 AM 37.0 °F - 36.0 °F 96% 30.17 in 8.0 mi Calm Calm - N/A   Clear
5:53 AM 36.0 °F - 36.0 °F 100% 30.19 in 8.0 mi Calm Calm - N/A   Clear
6:53 AM 36.0 °F - 35.1 °F 97% 30.19 in 8.0 mi Calm Calm - N/A   Clear
7:53 AM 37.0 °F - 37.0 °F 100% 30.20 in 7.0 mi Calm Calm - N/A   Clear
8:53 AM 48.0 °F - 42.1 °F 80% 30.20 in 10.0 mi Calm Calm - N/A   Clear
9:53 AM 59.0 °F - 37.9 °F 46% 30.21 in 10.0 mi WNW 9.2 mph - N/A   Clear
10:53 AM 64.0 °F - 36.0 °F 35% 30.20 in 10.0 mi NNW 16.1 mph - N/A   Clear
11:53 AM 64.9 °F - 37.0 °F 36% 30.19 in 10.0 mi NW 18.4 mph - N/A   Clear
12:53 PM 64.9 °F - 37.9 °F 37% 30.17 in 10.0 mi WNW 15.0 mph 26.5 mph N/A   Clear
1:53 PM 61.0 °F - 42.1 °F 50% 30.18 in 10.0 mi NNW 21.9 mph 28.8 mph N/A   Scattered Clouds
2:53 PM 55.0 °F - 39.9 °F 57% 30.22 in 10.0 mi NNW 17.3 mph 26.5 mph N/A   Partly Cloudy
3:53 PM 54.0 °F - 34.0 °F 47% 30.24 in 10.0 mi North 17.3 mph 31.1 mph N/A   Clear
4:53 PM 48.9 °F - 30.9 °F 50% 30.28 in 10.0 mi North 12.7 mph 27.6 mph N/A   Clear
5:53 PM 45.0 °F 37.4 °F 28.0 °F 52% 30.32 in 10.0 mi NNW 18.4 mph 26.5 mph N/A   Clear
6:53 PM 41.0 °F 32.2 °F 24.1 °F 51% 30.37 in 10.0 mi NNW 18.4 mph 28.8 mph N/A   Clear
7:53 PM 37.9 °F 28.9 °F 19.9 °F 48% 30.39 in 10.0 mi NNW 16.1 mph 26.5 mph N/A   Clear
8:53 PM 37.0 °F 27.0 °F 19.0 °F 48% 30.40 in 10.0 mi NNW 18.4 mph 24.2 mph N/A   Clear
9:53 PM 36.0 °F 26.7 °F 18.0 °F 48% 30.43 in 10.0 mi North 15.0 mph 23.0 mph N/A   Clear
10:53 PM 35.1 °F 27.9 °F 18.0 °F 50% 30.44 in 10.0 mi North 9.2 mph 17.3 mph N/A   Clear
11:53 PM 34.0 °F 26.0 °F 18.0 °F 52% 30.45 in 10.0 mi North 10.4 mph - N/A   Clear